TimeCDT,TemperatureF,Dew PointF,Humidity,Sea Level PressureIn,VisibilityMPH,Wind Direction,Wind SpeedMPH,Gust SpeedMPH,PrecipitationIn,Events,Conditions,WindDirDegrees,DateUTC
12:56 AM,21.9,19.0,89,30.28,10.0,East,6.9,-,N/A,,Clear,90,2013-04-05 05:56:00
1:56 AM,21.9,17.1,82,30.28,10.0,East,6.9,-,N/A,,Clear,90,2013-04-05 06:56:00
2:56 AM,19.9,14.0,78,30.27,10.0,East,6.9,-,N/A,,Clear,100,2013-04-05 07:56:00
3:56 AM,19.9,14.0,78,30.25,10.0,East,9.2,-,N/A,,Clear,100,2013-04-05 08:56:00
4:56 AM,19.0,14.0,81,30.23,10.0,East,9.2,-,N/A,,Clear,100,2013-04-05 09:56:00
5:56 AM,19.9,16.0,85,30.21,10.0,ESE,15.0,-,N/A,,Clear,110,2013-04-05 10:56:00
6:56 AM,19.9,15.1,81,30.21,10.0,SE,11.5,-,N/A,,Partly Cloudy,130,2013-04-05 11:56:00
7:56 AM,21.0,15.1,78,30.18,10.0,ESE,10.4,-,N/A,,Overcast,120,2013-04-05 12:56:00
8:56 AM,21.9,16.0,78,30.17,10.0,ESE,11.5,-,N/A,,Overcast,120,2013-04-05 13:56:00
9:56 AM,23.0,17.1,78,30.12,10.0,ESE,17.3,-,N/A,,Overcast,120,2013-04-05 14:56:00
10:56 AM,25.0,19.0,78,30.10,10.0,SE,16.1,-,N/A,,Overcast,130,2013-04-05 15:56:00
11:56 AM,28.0,21.0,75,30.06,10.0,SE,18.4,-,N/A,,Mostly Cloudy,130,2013-04-05 16:56:00
12:56 PM,28.9,21.9,75,30.02,10.0,SE,20.7,25.3,N/A,,Overcast,140,2013-04-05 17:56:00
1:56 PM,32.0,26.1,79,29.98,10.0,ESE,20.7,26.5,N/A,,Overcast,120,2013-04-05 18:56:00
2:56 PM,34.0,28.0,79,29.95,10.0,ESE,18.4,28.8,N/A,,Overcast,120,2013-04-05 19:56:00
3:56 PM,34.0,27.0,75,29.92,10.0,SE,23.0,31.1,N/A,,Scattered Clouds,130,2013-04-05 20:56:00
4:45 PM,33.8,28.4,81,29.83,10.0,ESE,21.9,28.8,N/A,,Mostly Cloudy,120,2013-04-05 21:45:00
4:56 PM,33.1,27.0,78,29.89,10.0,SE,24.2,32.2,N/A,,Mostly Cloudy,130,2013-04-05 21:56:00
5:56 PM,32.0,27.0,82,29.89,10.0,SE,24.2,28.8,N/A,,Overcast,130,2013-04-05 22:56:00
6:04 PM,32.0,26.6,80,29.82,10.0,SE,23.0,28.8,N/A,,Overcast,130,2013-04-05 23:04:00
6:56 PM,32.0,28.0,85,29.86,10.0,ESE,18.4,27.6,N/A,,Overcast,120,2013-04-05 23:56:00
7:37 PM,32.0,28.4,87,29.79,10.0,ESE,20.7,27.6,N/A,,Overcast,120,2013-04-06 00:37:00
7:56 PM,32.0,28.0,85,29.84,10.0,ESE,19.6,-,N/A,,Overcast,120,2013-04-06 00:56:00
8:56 PM,32.0,28.9,88,29.83,10.0,ESE,18.4,26.5,N/A,,Overcast,120,2013-04-06 01:56:00
9:56 PM,32.0,28.9,88,29.82,10.0,ESE,13.8,-,N/A,,Overcast,120,2013-04-06 02:56:00
10:56 PM,32.0,28.9,88,29.81,10.0,SE,12.7,-,N/A,,Overcast,130,2013-04-06 03:56:00
11:56 PM,32.0,28.9,88,29.79,10.0,ESE,6.9,-,N/A,,Overcast,120,2013-04-06 04:56:00